Todos
Coldstream Airport (Coldstream, Victoria) YCEM Condições meteorológicas
|
Coldstream, Victoria (YCEM)
Céu Limpo
Vento fraco |
|
14 °C |
There is no TAF data available at YCEM or any nearby airports.
Histórico recente de METAR YCEM
| Date | Time (AEST) | Flight Rules | Wind Dir. | Speed | Type | Height AGL (ft) | Visibility | Temp (°C) | Temp (°F) | Dew Point (°C) | Dew Point (°F) | Rel. Humid. | Pressure | Density Altitude | Remarks |
|---|---|---|---|---|---|---|---|---|---|---|---|---|---|---|---|
| 05-Mai | 17:00 | n/a | Calm | Missing | 14° | 57° | 8° | 46° | 67% | 1021 mb | -17 ft | ||||
| 05-Mai | 16:00 | n/a | 350° | 3 kt | Missing | 15° | 59° | 7° | 44° | 59% | 1021 mb | 103 ft | |||
| 05-Mai | 15:00 | n/a | 320° | 4 kt | Missing | 15° | 59° | 7° | 44° | 59% | 1020 mb | 132 ft | |||
| 05-Mai | 14:00 | n/a | 290° | 6 kt | Missing | 15° | 59° | 7° | 44° | 59% | 1020 mb | 132 ft | |||
| 05-Mai | 13:00 | n/a | 250° | 9 kt | Missing | 15° | 59° | 8° | 46° | 63% | 1020 mb | 132 ft | |||
| 05-Mai | 12:00 | n/a | 270° | 8 kt | Missing | 15° | 59° | 8° | 46° | 63% | 1020 mb | 132 ft | |||
| 05-Mai | 11:00 | n/a | 270° | 9 kt | Missing | 14° | 57° | 8° | 46° | 67% | 1020 mb | 12 ft | |||
| 05-Mai | 10:00 | n/a | 260° | 4 kt | Missing | 14° | 57° | 10° | 50° | 77% | 1020 mb | 12 ft | |||
| 05-Mai | 09:00 | n/a | 340° | 4 kt | Missing | 13° | 55° | 11° | 51° | 88% | 1020 mb | -108 ft | |||
| 05-Mai | 08:00 | n/a | 330° | 5 kt | Missing | 13° | 55° | 11° | 51° | 88% | 1019 mb | -78 ft | |||
| 05-Mai | 07:00 | n/a | 10° | 1 kt | Missing | 12° | 53° | 11° | 51° | 94% | 1018 mb | -169 ft | |||
| 05-Mai | 06:00 | n/a | 290° | 8 kt | Missing | 12° | 53° | 10° | 50° | 88% | 1017 mb | -139 ft | |||
| 05-Mai | 05:00 | n/a | 310° | 5 kt | Missing | 13° | 55° | 9° | 48° | 77% | 1016 mb | 11 ft | |||
| 05-Mai | 04:00 | n/a | 310° | 7 kt | Missing | 14° | 57° | 9° | 48° | 72% | 1015 mb | 160 ft | |||
| 05-Mai | 03:00 | n/a | 320° | 6 kt | Missing | 14° | 57° | 9° | 48° | 72% | 1015 mb | 160 ft | |||
| 05-Mai | 02:00 | n/a | 350° | 5 kt | Missing | 14° | 57° | 10° | 50° | 77% | 1015 mb | 160 ft | |||
| 05-Mai | 01:00 | n/a | 320° | 6 kt | Missing | 14° | 57° | 10° | 50° | 77% | 1014 mb | 190 ft | |||
| 05-Mai | 00:00 | n/a | 360° | 4 kt | Missing | 14° | 57° | 10° | 50° | 77% | 1014 mb | 190 ft | |||
| 04-Mai | 23:00 | n/a | 10° | 4 kt | Missing | 14° | 57° | 11° | 51° | 82% | 1014 mb | 190 ft | |||
| 04-Mai | 22:00 | n/a | 350° | 7 kt | Missing | 14° | 57° | 11° | 51° | 82% | 1013 mb | 219 ft | |||
| 04-Mai | 21:00 | n/a | 10° | 7 kt | Missing | 14° | 57° | 11° | 51° | 82% | 1013 mb | 219 ft | |||
| 04-Mai | 20:00 | n/a | 10° | 7 kt | Missing | 13° | 55° | 12° | 53° | 94% | 1012 mb | 129 ft | |||
| 04-Mai | 19:00 | n/a | 360° | 9 kt | Missing | 14° | 57° | 11° | 51° | 82% | 1012 mb | 249 ft | |||
| 04-Mai | 18:00 | n/a | 10° | 9 kt | Missing | 14° | 57° | 10° | 50° | 77% | 1011 mb | 278 ft |
Entrar
| Seu navegador não suporta. atualize seu navegador |
